Location: K�benhavn
(55.6670°N, 12.5830°E)
Time: 20:28:19
(UTC+01:00)

X-37B - Visible Passes

Search period start: 31 October 2020 00:00
Search period end: 10 November 2020 00:00
Orbit: 382 x 392 km, 45.0° (Epoch: 15 October)

Date Brightness Start Highest point End Pass type
(mag) Time Alt. Az. Time Alt. Az. Time Alt. Az.
03 Nov 3.7 06:42:18 10° S 06:42:56 10° SSE 06:43:35 10° SSE visible
05 Nov 3.4 06:20:47 10° SSW 06:22:06 12° S 06:23:25 10° SSE visible
06 Nov 3.5 05:23:14 10° S 05:23:50 10° SSE 05:24:26 10° SSE visible
07 Nov 3.3 05:59:46 10° SSW 06:01:16 13° S 06:02:46 10° SSE visible
08 Nov 3.3 05:02:55 12° S 05:02:59 12° S 05:04:17 10° SSE visible
08 Nov 3.3 06:37:37 10° SSW 06:38:43 11° S 06:39:50 10° S visible
09 Nov 3.1 05:39:19 11° SSW 05:40:27 13° S 05:41:54 10° SSE visible
